Weather History for Guernsey, United Kingdom

Change the Weather History Date:

Thursday, September 13, 2012

  Actual Average Record
Temperature  
Mean Temperature 56 °F -  
Max Temperature 61 °F 60 °F 71 °F (2003)
Min Temperature 52 °F 53 °F 50 °F (1998)
Degree Days  
Heating Degree Days 8    
Growing Degree Days 6 (Base 50)    
Moisture  
Dew Point 49 °F    
Average Humidity 73    
Maximum Humidity 88    
Minimum Humidity 59    
Precipitation  
Precipitation 0.00 in - - ()
Sea Level Pressure  
Sea Level Pressure 30.18 in    
Wind  
Wind Speed 11 mph ()    
Max Wind Speed 17 mph    
Max Gust Speed -    
Visibility 6.6 miles    
Events      
Averages and records for this station are not official NWS values.
T = Trace of Precipitation, MM = Missing Value Source: Averaged Metar Reports

Daily Weather History Graph

Daily Weather History Graph

Search for Another Location

Airport:

Trip Planner

Search our weather history database for the weather conditions in past years. The results will help you decide how hot, cold, wet, or windy it might be!

Date:

Astronomy

Sep. 13, 2012 Rise Set
Actual Time 6:44 AM BST 7:27 PM BST
Civil Twilight 6:11 AM BST 7:59 PM BST
Nautical Twilight 5:33 AM BST 8:37 PM BST
Astronomical Twilight 4:52 AM BST 9:18 PM BST
Moon 3:36 AM BST (9/13) 5:50 PM BST (9/13)
Length of Visible Light 13h 47m
Length of Day
12h 43m
Waning Crescent, 8% of the Moon is Illuminated
Sep 13
Waning Crescent
Sep 16
New
Sep 22
First Quarter
Sep 30
Full
Oct 8
Last Quarter

Hourly Weather History & Observations

Time (BST) Temp. Dew Point Humidity Pressure Visibility Wind Dir Wind Speed Gust Speed Precip Events Conditions
1:00 AM 58 °F 54 °F 81% 30.07 in 19 mi NNW 17.3 mph - -   Partly Cloudy
3:50 AM 55.4 °F 44.6 °F 67% 30.12 in 6.2 mi North 13.8 mph - N/A   Scattered Clouds
4:00 AM 54 °F 44 °F 60% 30.13 in 22 mi North 13.8 mph - -   Partly Cloudy
4:20 AM 53.6 °F 42.8 °F 67% 30.12 in 6.2 mi North 15.0 mph - N/A   Partly Cloudy
4:50 AM 53.6 °F 44.6 °F 72% 30.09 in 6.2 mi North 13.8 mph - N/A   Partly Cloudy
5:20 AM 53.6 °F 44.6 °F 72% 30.12 in 6.2 mi North 13.8 mph - N/A   Partly Cloudy
5:50 AM 53.6 °F 46.4 °F 77% 30.12 in 6.2 mi North 10.4 mph - N/A   Partly Cloudy
6:20 AM 53.6 °F 46.4 °F 77% 30.15 in 6.2 mi North 10.4 mph - N/A   Partly Cloudy
6:50 AM 53.6 °F 46.4 °F 77% 30.15 in 6.2 mi North 8.1 mph - N/A   Partly Cloudy
7:00 AM 53 °F 46 °F 69% 30.17 in 25 mi North 8.1 mph - -   Scattered Clouds
7:20 AM 53.6 °F 48.2 °F 82% 30.18 in 6.2 mi North 8.1 mph - N/A   Partly Cloudy
7:50 AM 53.6 °F 48.2 °F 82% 30.18 in 6.2 mi North 6.9 mph - N/A   Partly Cloudy
8:20 AM 55.4 °F 48.2 °F 77% 30.18 in 6.2 mi North 8.1 mph - N/A   Partly Cloudy
8:50 AM 57.2 °F 50.0 °F 77% 30.18 in 6.2 mi North 6.9 mph - N/A   Partly Cloudy
9:20 AM 57.2 °F 50.0 °F 77% 30.18 in 6.2 mi North 11.5 mph - N/A   Partly Cloudy
9:50 AM 57.2 °F 50.0 °F 77% 30.21 in 6.2 mi NNW 9.2 mph - N/A   Partly Cloudy
10:00 AM 57 °F 49 °F 68% 30.22 in 31 mi NNW 9.2 mph - -   Scattered Clouds
10:20 AM 57.2 °F 50.0 °F 77% 30.21 in 6.2 mi NNW 8.1 mph - N/A   Partly Cloudy
10:50 AM 59.0 °F 48.2 °F 67% 30.21 in 6.2 mi North 8.1 mph - N/A   Partly Cloudy
11:20 AM 59.0 °F 50.0 °F 72% 30.21 in 6.2 mi NNW 8.1 mph - N/A   Partly Cloudy
11:50 AM 59.0 °F 48.2 °F 67% 30.21 in 6.2 mi NNW 6.9 mph - N/A   Partly Cloudy
12:20 PM 59.0 °F 50.0 °F 72% 30.21 in 6.2 mi NNW 6.9 mph - N/A   Partly Cloudy
12:50 PM 59.0 °F 48.2 °F 67% 30.21 in 6.2 mi WNW 9.2 mph - N/A   Partly Cloudy
1:00 PM 59 °F 49 °F 59% 30.22 in 34 mi WNW 9.2 mph - -   Scattered Clouds
1:20 PM 59.0 °F 48.2 °F 67% 30.21 in 6.2 mi WNW 9.2 mph - N/A   Partly Cloudy
1:50 PM 60.8 °F 48.2 °F 63% 30.21 in 6.2 mi West 10.4 mph - N/A   Partly Cloudy
2:20 PM 60.8 °F 48.2 °F 63% 30.21 in 6.2 mi West 9.2 mph - N/A   Partly Cloudy
2:50 PM 60.8 °F 50.0 °F 68% 30.21 in 6.2 mi West 10.4 mph - N/A   Partly Cloudy
3:20 PM 60.8 °F 50.0 °F 68% 30.21 in 6.2 mi WNW 11.5 mph - N/A   Partly Cloudy
3:50 PM 60.8 °F 50.0 °F 68% 30.21 in 6.2 mi WNW 11.5 mph - N/A   Partly Cloudy
4:00 PM 60 °F 49 °F 59% 30.22 in 34 mi WNW 11.5 mph - -   Scattered Clouds
4:20 PM 60.8 °F 48.2 °F 63% 30.18 in 6.2 mi West 11.5 mph - N/A   Partly Cloudy
4:50 PM 59.0 °F 50.0 °F 72% 30.18 in - West 13.8 mph - N/A   Clear
5:20 PM 60.8 °F 50.0 °F 68% 30.18 in 6.2 mi West 15.0 mph - N/A   Partly Cloudy
5:50 PM 59.0 °F 50.0 °F 72% 30.18 in 6.2 mi West 13.8 mph - N/A   Partly Cloudy
6:20 PM 59.0 °F 51.8 °F 77% 30.18 in 6.2 mi West 11.5 mph - N/A   Partly Cloudy
6:50 PM 57.2 °F 51.8 °F 82% 30.18 in 6.2 mi West 13.8 mph - N/A   Partly Cloudy
7:00 PM 58 °F 52 °F 73% 30.19 in 25 mi West 13.8 mph - -   Scattered Clouds
7:20 PM 57.2 °F 51.8 °F 82% 30.18 in 6.2 mi West 13.8 mph - N/A   Partly Cloudy
7:50 PM 57.2 °F 53.6 °F 88% 30.18 in 6.2 mi West 16.1 mph - N/A   Scattered Clouds
8:20 PM 57.2 °F 53.6 °F 88% 30.18 in 6.2 mi West 12.7 mph - N/A   Scattered Clouds
8:50 PM 57.2 °F 53.6 °F 88% 30.18 in 6.2 mi West 15.0 mph - N/A   Scattered Clouds
9:20 PM 59.0 °F 53.6 °F 82% 30.18 in 6.2 mi West 12.7 mph - N/A   Scattered Clouds
10:00 PM 58 °F 53 °F 80% 30.18 in 22 mi West 16.1 mph - -   Mostly Cloudy